Tracking 29892 objects as of 21-Nov-2024
HD Live streaming from Space Station
objects crossing your sky now

STARLINK-31769

Track STARLINK-31769 now!
10-day predictions
STARLINK-31769 is classified as:


NORAD ID: 59617
Int'l Code: 2024-080S
Perigee: 450.0 km
Apogee: 452.5 km
Inclination: 43.0 °
Period: 93.5 minutes
Semi major axis: 6822 km
RCS: Unknown
Launch date: April 28, 2024
Source: United States (US)
Launch site: AIR FORCE EASTERN TEST RANGE (AFETR)
Your satellite tracking list
Your tracking list is empty




NASA's NSSDC Master Catalog

Two Line Element Set (TLE):
1 59617U 24080S   24325.98097836  .00001065  00000-0  32777-4 0  9990
2 59617  43.0023 212.3261 0001804 284.0656  76.0000 15.40683862 33083
Source of the keplerian elements: AFSPC